Location: Newark
(32.9900°N, 111.5400°W)
Time: 08:51:41
(UTC+00:00)

Envisat - Pass Details

Date: 14 November 2019
Orbit: 764 x 766 km, 98.1° (Epoch: 08 December)

Event Time Altitude Azimuth Distance (km) Brightness Sun altitude
Rises 01:55:17 0° 179° (S) 3,216 6.3 -18.9°
Reaches altitude 10° 01:57:38 10° 184° (S) 2,294 5.6 -19.4°
Maximum altitude 02:02:33 51° 260° (W) 958 3.9 -20.4°
Drops below altitude 10° 02:07:29 10° 336° (NNW) 2,306 5.6 -21.4°
Sets 02:09:52 0° 342° (NNW) 3,236 6.4 -21.9°
